Location: Calvera
(42.3882°N, 0.6137°E)
Time: 18:39:37
(UTC+00:00)

Cosmos 2082 Rocket - Pass Details

Date: 28 October 2020
Orbit: 833 x 854 km, 71.0° (Epoch: 23 November)

Event Time Altitude Azimuth Distance (km) Brightness Sun altitude
Exits shadow 05:34:13 - 233° (SW) 3,229 4.8 -10.2°
Reaches altitude 10° 05:36:32 10° 242° (WSW) 2,438 4.1 -9.8°
Maximum altitude 05:41:28 31° 305° (NW) 1,419 2.9 -8.9°
Drops below altitude 10° 05:46:26 10° 7° (N) 2,455 4.6 -8.0°
Sets 05:49:10 0° 17° (NNE) 3,395 5.4 -7.5°
